Terminal Aerodrome Forecast
Issued by NWS

Home | Current Version | Previous Version | Text Only | Print | Product List | Glossary On
Versions: 1 2 3 4 5 6 7 8 9 10 11 12 13 14 15 16 17 18 19 20 21
000
FTUS44 KTSA 020500
TAFRVS
TAF
KRVS 020520Z 0206/0306 18013G18KT P6SM SCT100 BKN250
      TEMPO 0206/0209 -TSRA BKN100CB
     FM020900 18012KT P6SM BKN025
      TEMPO 0210/0214 BKN015
     FM021500 20011G18KT P6SM BKN100
     FM030000 VRB06KT P6SM BKN100 BKN250=

USA.gov is the U.S. government's official web portal to all federal, state and local government web resources and services.